Location: Bakov nad Jizerou
(50.4784°N, 14.9394°E)
Time: 05:38:40
(UTC+00:00)

Cosmos 2058 Rocket - Pass Details

Date: 16 June 2021
Orbit: 609 x 640 km, 82.5° (Epoch: 28 July)

Event Time Altitude Azimuth Distance (km) Brightness Sun altitude
Rises 21:39:02 0° 355° (N) 2,940 8.2 -13.9°
Reaches altitude 10° 21:41:26 10° 3° (N) 2,022 6.8 -14.1°
Maximum altitude 21:45:38 39° 73° (ENE) 948 4.0 -14.3°
Enters shadow 21:48:18 19° 132° (SE) 1,472 4.5 -14.4°
